Location: Mount Cross
(36.6390°N, 79.4878°W)
Time: 19:30:55
(UTC+00:00)

Courier 1B Rocket - Pass Details

Date: 28 March 2023
Orbit: 920 x 1202 km, 28.2° (Epoch: 05 June)

Event Time Altitude Azimuth Distance (km) Brightness Sun altitude
Rises 04:39:27 0° 264° (W) 3,705 - -49.2°
Reaches altitude 10° 04:42:38 10° 252° (WSW) 2,711 - -49.4°
Maximum altitude 04:47:48 25° 199° (SSW) 1,788 - -49.6°
Drops below altitude 10° 04:52:49 10° 146° (SE) 2,612 - -49.8°
Sets 04:55:49 0° 133° (SE) 3,542 - -50.0°
